カタログに戻る

CZ-6A DEB

運用中PO
NORAD 61816·DEBRIS·🇨🇳 China

打ち上げ Aug 6, 2024 から Taiyuan Satellite Launch Center

Loading…

次のパス (今後24時間)

TLE

最新Source: Space-Track

元期: Sep 14, 2026, 00:46 UTC

1 61816U 24140ACG 26257.03220408  .00001926  00000-0  71114-3 0  9999
2 61816  89.1522 277.6357 0060580 290.9459  68.5260 14.31134466104909

AllMySatでCZ-6A DEBをリアルタイム追跡

Download on the App Store